STARLINK-1153, 45080

Orbit data source: Space-Track

STARLINK-1153, 45080 is a payload satellite owned by SpaceX/Seattle (US) in LEO that was launched on Wed, 29 Jan 2020 UTC via an FALCON 9 launch vehicle from the Air Force Eastern Test Range (AFETR). Payloads include a variety of satellites, spacecraft, and rockets equipped with specific instruments for various scientific and technological missions. These include communications satellites like Starlink; space stations such as the ISS; scientific satellites like the Hubble; Earth observation satellites from companies like Planet Labs, Umbra, and HawkEye 360; GPS; miniature CubeSats for education and research; and military/defense satellites.

Loading next visibility...
STARLINK-1153 details
Identifier
45080, 2020-006AN
Orbit
LEO
Last TLE update20 hours ago
Origin
Flag of USSpaceX/Seattle (US)
ManufacturerSpaceX/Seattle
MissionOperational Commercial Communications
Bus & MotorSTARLINK, Unknown motor
Mass260 kg wet, ~248 kg dry
Launch date (UTC)
2020-01-29 (5 years ago)
Launch vehicle
FALCON 9
Launch site
Air Force Eastern Test Range (AFETR)
Object type
Payload
Rocket body
Debris
Shape & HBRBox + 1 Pan, 8.86 m
Radar Cross Section13.562 m², Large (>1 m²)

Expand to show TLE details & history

TLE from 20 hours ago
0 STARLINK-1153
1 45080U 20006AN  24360.63217523  .00019628  00000-0  13337-2 0  9994
2 45080  53.0559  77.6217 0001635 104.5744 255.5426 15.06377801270563
Epoch: 2024-12-25T15:10Z
Definitive object data (Epoch: 2024-12-25T15:10:19.939Z)
Latitude-0.00007°
Longitude115.41543°
Altitude548.442 km
Speed7.589 km/s
True Right ascension05h 10m 29s
True Declination0° 00' 00"
Sunlit
Object was in full shadow at TLE epoch
Visualization TLE readout
Latitude49.9715°
Longitude-131.17406°
Altitude551.863 km
Speed7.593 km/s
Apparent Right ascension17h 54m 43s
Apparent Declination20° 50' 33"
Sunlit
Object is in daylight
Visualization observer readout
Local Sidereal Time10:06:25
Azimuth56.738° ENE
Elevation-5.621°
Doppler factor1
Orbital elements
Apogee altitude548.682 km
Perigee altitude546.418 km
Semi-major axis6,925.687 km
Eccentricity0.0001635
Inclination53.0559°
RAAN77.6217°
Arg. of periapsis104.5744°
True anomaly255.52446°
Mean anomaly255.5426°
Eccentric anomaly255.53353°
Mean motion3.76573 °/min
BSTAR0.0013337
Orbital period95.6 mins
Loading maneuver chart data...
Loading historical data...
Loading historical data...
Loading historical data...
Loading historical data...
Loading historical data...
Loading historical data...
Loading historical data...

STARLINK-1153 Visibility forecast

Observer location: undefined°, undefined

Span
Click to sort rows by Start time (UTC) header in descending order
Start Az.
Max El. time (UTC)
Max El. Az.
Max El.
End time (UTC)
End Az.
5 mins2024-12-26 13:57:11.306Z341.301° N2024-12-26 13:59:11.306Z33.592° NE29.602°2024-12-26 14:02:11.306Z92.644° ESE
6 mins2024-12-26 15:36:11.306Z284.704° WNW2024-12-26 15:38:11.306Z242.741° WSW30.352°2024-12-26 15:42:11.306Z160.955° S
6 mins2024-12-27 07:09:11.306Z191.314° SSW2024-12-27 07:11:11.306Z143.809° SSE32.509°2024-12-27 07:15:11.306Z63.992° ENE
5 mins2024-12-27 08:49:11.306Z284.352° WNW2024-12-27 08:51:11.306Z336.072° NNW28.399°2024-12-27 08:54:11.306Z32.01° NE
|